Tracking 29892 objects as of 21-Nov-2024
HD Live streaming from Space Station
objects crossing your sky now

COSMOS 1249 COOLANT

Track COSMOS 1249 COOLANT now!
10-day predictions


NORAD ID: 26911
Int'l Code: 1981-021Q
Perigee: 906.5 km
Apogee: 954.1 km
Inclination: 65.0 °
Period: 103.5 minutes
Semi major axis: 7301 km
RCS: 0.0079 m2 (small)
Launch date: March 5, 1981
Source: Commonwealth of Independent States (former USSR) (CIS)
Launch site: TYURATAM MISSILE AND SPACE COMPLEX (TTMTR)

Note: This is SATELLITE DEBRIS
Your satellite tracking list
Your tracking list is empty




NASA's NSSDC Master Catalog

Two Line Element Set (TLE):
1 26911U 81021Q   24320.47207973  .00000328  00000-0  32896-3 0  9995
2 26911  64.9647  29.0800 0032622  68.7669 304.5218 13.91556967577164
Source of the keplerian elements: AFSPC